User: anonymous   Login
Location: Nairn
(57.5833°N, 3.8667°W)
Time: 12:08:45
(UTC+00:00)
Language:

Cosmos 1603 - Orbit

View from above orbital plane
View from above orbital plane
View from above satellite
View from above satellite

Ground track
Ground track

The orbit data is extracted from the following two-line orbital elements,

1 15333U 84106A   20296.62808648 +.00000017 +00000-0 +33718-4 0  9999
2 15333 071.0288 050.3913 0018196 150.1980 210.0183 14.14110587860970
Epoch (UTC): 22 October 2020 15:04:26
Eccentricity: 0.0018196
inclination: 71.0288°
perigee height: 832 km
apogee height: 858 km
right ascension of ascending node: 50.3913°
argument of perigee: 150.1980°
revolutions per day: 14.14110587
mean anomaly at epoch: 210.0183°
orbit number at epoch: 86097

The dashed part of the orbit path shows where the satellite is in the earth's shadow,  

DLR